Location: Azenweiler
(47.8027°N, 9.4096°E)
Time: 02:10:41
(UTC+00:00)

Cosmos 1626 Rocket - Pass Details

Date: 22 March 2026
Orbit: 596 x 624 km, 82.5° (Epoch: 13 April)

Event Time Altitude Azimuth Distance (km) Brightness Sun altitude
Rises 03:11:30 0° 350° (N) 2,888 7.2 -21.9°
Reaches altitude 10° 03:13:45 10° 351° (N) 1,973 6.3 -21.5°
Maximum altitude 03:18:07 88° 76° (ENE) 613 3.4 -20.9°
Drops below altitude 10° 03:22:25 10° 171° (S) 1,940 5.9 -20.2°
Enters shadow 03:22:27 10° 171° (S) 1,950 5.9 -20.2°
